[ hide orbit diagram ]
For accurate long-term ephemerides, please instead use our Horizons system.This orbit viewer was implemented using two-body methods, and hence should not be used for determining accurate long-term trajectories (over several years or decades) or planetary encounter circumstances.
Orbital Elements at Epoch 2459000.5 (2020-May-31.0) TDB
Reference: JPL 12 (heliocentric ecliptic J2000)
Element | Value | Uncertainty (1-sigma) | Units |
e | .1891118896720378 | 7.4548e-08 | |
a | 2.767310120054023 | 1.954e-08 | au |
q | 2.243978873942053 | 2.0286e-07 | au |
i | 10.57654864961529 | 9.22e-06 | deg |
node | 359.058293334939 | 2.5356e-05 | deg |
peri | 311.9654547042556 | 3.2658e-05 | deg |
M | 109.2843941869708 | 2.3235e-05 | deg |
tp | 2458490.064557699213 (2019-Jan-06.56455770) | 0.00010589 | TDB |
period | 1681.454709021861 4.60 | 1.7809e-05 4.876e-08 | d yr |
n | .2141003251936651 | 2.2677e-09 | deg/d |
Q | 3.290641366165993 | 2.3236e-08 | au |
|
| | Orbit Determination Parameters
Additional Information
|
[ show covariance matrix ]
Physical Parameter Table
Parameter |
Symbol |
Value |
Units |
Sigma |
Reference |
Notes |
absolute magnitude |
H |
16.0 |
|
n/a |
MPO503412 |
|
|
357733 (2005 RS10) Discovered 2005-Sep-08 by LINEAR at Socorro |
Reference: 20130327/Numbers.arc | Last Updated: 2013-03-29 |
|
[ show close-approach data ]
|